sat.trackr.live / text

‹ back to catalog

STARLINK-11528 [DTC]

NORAD 62521 · 2025-004L

PAYLOAD ACTIVE UNKNOWN

§ Identity

Operator
Country
US
Launch date
2025-01-08
Launch site
AFETR
Launch vehicle
Mass (kg)
RCS (m²)

Purposes: comms

External: N2YO · Heavens-Above · Gunter

§ Orbital elements

Epoch: 2026-09-21T12:27:57.301344Z

Period
91.67 min
Inclination
43.0008°
Eccentricity
0.0001210
Mean motion
15.70847771 rev/d
Perigee alt
355.7 km
Apogee alt
357.3 km
Semi-major
6,734.6 km
B*
9.0676e-4
RAAN
330.6694°
Arg perigee
299.9327°
Mean anomaly
60.1420°
Rev number
9,800

§ Raw data

STARLINK-11528 [DTC]1 62521U 25004L   26264.51941321  .00117597  00000+0  90676-3 0  99932 62521  43.0008 330.6694 0001210 299.9327  60.1420 15.70847771 98006

JSON: /api/v1/satellites/62521 · /tle

For live sub-satellite position, see the globe view (requires WebGL).

§ Visibility from observer

Set your observer location to see the next 7 days of passes ≥ 10°. The values pass through the URL so the page stays shareable.

No JS? Fill the form by hand. The geolocation button needs JavaScript.